Regional Weather Roundup
Issued by NWS Sterling, VA

Home | Current Version | Previous Version | Graphics & Text | Print | Product List | Glossary On
Versions: 1 2 3 4 5 6 7 8 9 10 11 12 13 14 15 16 17 18 19 20 21 22 23 24 25 26 27 28 29 30 31 32 33 34 35 36 37 38 39 40 41 42 43 44 45 46 47 48 49 50
000
ASUS41 KLWX 010410
RWRLWX

REGIONAL WEATHER ROUNDUP
NATIONAL WEATHER SERVICE BALTIMORE MD/WASHINGTON DC
1200 AM EDT SAT AUG 01 2015

Note: "FAIR" indicates few or no clouds below 12,000 feet
with no significant weather and/or obstructions to visibility.
 TC=TEMPERATURE CELSIUS

 * =Non NWS site. Station does not report precipitation (e.g. rain,
    snow, etc.), thunder, or fog.

DCZ001-MDZ009-015-VAZ040>042-051-053>054-010500-
WASHINGTON METRO

CITY           SKY/WX    TMP DP  RH WIND       PRES   REMARKS
WASHINGTON NAT CLEAR     80  63  55 SW5       29.91R
DULLES         CLEAR     71  64  78 CALM      29.91S
ANDREWS AFB    CLEAR     74  64  69 SW7       29.90S
FT BELVOIR     CLEAR     68  66  92 CALM      29.91R
COLLEGE PARK*  CLEAR     70  64  83 CALM      29.90R
LEESBURG*      CLEAR     73  68  83 SW6       29.92F
MANASSAS*      CLEAR     70  70 100 CALM      29.92S
GAITHERSBURG*  CLEAR     66  61  82 CALM      29.95S

$$

MDZ006>007-011-014-010500-
BALTIMORE METRO

CITY           SKY/WX    TMP DP  RH WIND       PRES   REMARKS
BWI AIRPORT    CLEAR     69  63  81 CALM      29.89S
MD SCIENCE CTR   N/A     79  61  53 MISG      29.89R
MARTIN STATE   CLEAR     79  64  61 SW5       29.89S
ANNAPOLIS      CLEAR     76  65  68 CALM      29.88F
FORT MEADE*    CLEAR     64  63  94 CALM      29.92S

$$

MDZ012-015-019>023-010500-
MARYLAND EASTERN SHORE

CITY           SKY/WX    TMP DP  RH WIND       PRES   REMARKS
OCEAN CITY     CLEAR     66  63  90 CALM      29.90S
SALISBURY      CLEAR     71  66  84 CALM      29.90S
BAY BRIDGE AP*   N/A     79  63  57 SW3       29.89S
CAMBRIDGE*     CLEAR     72  68  88 CALM      29.89S
EASTON*        CLEAR     76  68  77 CALM      29.93S

$$

MDZ017>025-010500-
SOUTHERN MARYLAND

CITY           SKY/WX    TMP DP  RH WIND       PRES   REMARKS
PATUXENT RIVER CLEAR     73  66  78 SW8       29.90S
ST INIGOES     CLEAR     72  66  81 VRB3      29.90S
LEONARDTOWN*   CLEAR     72  64  78 CALM      29.92S

$$

MDZ003>005-010500-
NORTH CENTRAL MARYLAND

CITY           SKY/WX    TMP DP  RH WIND       PRES   REMARKS
FREDERICK*     CLEAR     68  66  94 S3        29.93S
HAGERSTOWN APT CLEAR     76  58  53 S5        29.91R
WESTMINSTER*   CLEAR     75  61  60 SW5       29.91S

$$

MDZ501>502-010500-
WESTERN MARYLAND

CITY           SKY/WX    TMP DP  RH WIND       PRES   REMARKS
OAKLAND*       CLEAR     64 N/A N/A SW9G20    30.02F
CUMBERLAND*    CLEAR     72  59  64 S8        29.96S

$$

VAZ025>031-010500-
SHENANDOAH VALLEY

CITY           SKY/WX    TMP DP  RH WIND       PRES   REMARKS
WINCHESTER*    CLEAR     73  61  64 SW3       29.93S
FRONT ROYAL*   FAIR      68  61  77 S6        29.93S
LURAY*         FAIR      68  64  88 CALM      29.96S
NEW MARKET*    FAIR      65  61  88 CALM      29.95F
STAUNTON*      CLEAR     67  61  82 CALM      30.00S
WAYNESBORO*    FAIR      65  61  87 CALM      30.00S

$$

WVZ021-048>050-054>055-010500-
EASTERN WEST VIRGINIA PANHANDLE

CITY           SKY/WX    TMP DP  RH WIND       PRES   REMARKS
MARTINSBURG    CLEAR     68  60  75 SE6       29.91S
PETERSBURG*    CLEAR    N/A N/A N/A CALM      29.97S

$$

VAZ036>039-050-010500-
CENTRAL FOOTHILLS

CITY           SKY/WX    TMP DP  RH WIND       PRES   REMARKS
CHARLOTTESVILL CLEAR     69  67  93 NW3       29.94S
CULPEPER*      CLEAR     67  65  96 CALM      29.93S
ORANGE*        CLEAR     68  66  94 CALM      29.95S
GORDONSVILLE*  FAIR      66  64  94 SW3       29.93F
WARRENTON*     FAIR      66  66 100 CALM      29.92S

$$

VAZ055>057-010500-
NORTH AND CENTRAL PIEDMONT

CITY           SKY/WX    TMP DP  RH WIND       PRES   REMARKS
FREDERICKSBRG* CLEAR     75  67  76 CALM      29.91S
STAFFORD*      CLEAR     65  64  96 CALM      29.96S

$$

NCZ024-NYZ072-PAZ021-071-VAZ022-071-010500-
OTHER REGIONAL OBSERVATIONS

CITY           SKY/WX    TMP DP  RH WIND       PRES   REMARKS
NEW YORK CITY  CLEAR     81  56  42 CALM      29.86S
PHILADELPHIA   CLEAR     78  63  59 SW7       29.87S
PITTSBURGH     PTCLDY    75  57  53 SW7       29.91S
ROANOKE        CLEAR     69  58  67 CALM      30.03S
RICHMOND       CLEAR     73  63  70 CALM      29.93S
RALEIGH        PTCLDY    73  66  78 CALM      29.95F

$$

ANZ530>537-010500-
MARINE OBSERVATIONS

STATION/POSITION TIME  TEMP    WIND        PRES
                       AIR SEA DIR/SP/G
                 (UTC) (F)     (DEG/KT/KT) (MB)
THOMAS PT LIGHT  NOT AVBL
BALT KEY BRIDGE  0300   80     210/  9/ 11 1011.5R
COVE POINT       0300   80     270/  9/  9 1013.0R
LEWISETTA        0300   78 84  230/  8/  9 1012.6R
SOLOMONS ISLAND  0300      84                N/A
PINEY POINT      0300          240/  7/ 10   N/A

$$



USA.gov is the U.S. government's official web portal to all federal, state and local government web resources and services.